Location: Dobie Observatory
(42.2815°N, 84.4219°W)
Time: 07:39:39
(UTC-05:00)

ISS - Visible Passes

Search period start: 16 January 2026 00:00
Search period end: 26 January 2026 00:00
Orbit: 413 x 424 km, 51.6° (Epoch: 16 January)

Date Brightness Start Highest point End Pass type
(mag) Time Alt. Az. Time Alt. Az. Time Alt. Az.
16 Jan -3.5 18:00:41 10° WSW 18:03:59 65° NNW 18:07:19 10° NE visible
16 Jan -1.5 19:38:43 10° WNW 19:40:36 19° NNW 19:40:36 19° NNW visible
17 Jan -2.0 18:50:31 10° WNW 18:53:18 24° NNW 18:54:49 17° NNE visible
18 Jan -2.4 18:02:22 10° W 18:05:22 30° NNW 18:08:23 10° NE visible
18 Jan -1.2 19:40:41 10° NW 19:41:56 15° NNW 19:41:56 15° NNW visible
19 Jan -1.7 18:52:32 10° NW 18:54:53 17° N 18:56:05 15° NNE visible
20 Jan -1.8 18:04:18 10° WNW 18:06:50 20° NNW 18:09:23 10° NE visible
20 Jan -1.2 19:42:11 10° NW 19:43:09 14° NNW 19:43:09 14° NNW visible
21 Jan -1.7 18:54:14 10° NW 18:56:27 16° N 18:57:17 15° NNE visible
22 Jan -1.7 18:06:08 10° NW 18:08:21 16° N 18:10:35 10° NE visible
22 Jan -1.4 19:43:13 10° NW 19:44:23 17° NNW 19:44:23 17° NNW visible
23 Jan -2.1 18:55:24 10° NW 18:57:56 19° NNE 18:58:33 19° NNE visible
24 Jan -1.9 19:44:03 10° NW 19:45:44 25° NNW 19:45:44 25° NNW visible
25 Jan -2.7 18:56:13 10° NW 18:59:13 30° NNE 19:00:02 26° NE visible
25 Jan -0.3 20:32:53 10° WNW 20:33:00 11° WNW 20:33:00 11° WNW visible
